Weather in Passo Fundo

Brazil     28°15′37″S   52°24′40″W
temp.,
°C
wind,
m/s
gust,
m/s
humid.,
%
clouds,
%
prec.,
mm/h
press.,
hPa
HPBL,
m
18 january, tue
tue1800:00+23ese4973100 0.0 1011209
03:00+22ene3774100 0.0 1011118
06:00+23n5106290 0.0 1013193
09:00+32nnw683663 0.0 1013963
12:00+36wnw5524100 0.0 10132615
15:00+34ne5427100 0.0 1011813
18:00+26ese51051100 0.1 1013431
21:00+24e395979 0.1 1014296
19 january, wed
wed1900:00+22ene4116856 0.0 1015263
03:00+22ne513701 0.0 1014349
06:00+21ne512751 0.0 1015250
09:00+30nne57420 0.0 1016833
12:00+36ne23280 0.0 10152325
15:00+37ene332349 0.0 10123238
18:00+32ese483486 0.1 1011321
21:00+21e5128717 1.1 1015253
20 january, thu
thu2000:00+22ne5128194 0.0 1015298
03:00+21e258136 0.0 1014117
06:00+20ne49895 0.0 1015183
09:00+30nne46465 0.0 1014727
12:00+36nw33270 0.0 10132767
15:00+39sse332099 0.0 10093906
18:00+36e562450 0.1 10071362
21:00+24nnw357532 0.5 1012138
21 january, fri
fri2100:00+22ne467851 0.0 1013133
03:00+21ne488045 0.0 1012158
06:00+22ne5118111 0.0 1012287
09:00+30nne68474 0.0 1012755
12:00+36nw54270 0.0 10102539
15:00+39wnw542192 0.0 10073882
18:00+35ene562797 0.0 1006652
21:00+26n456181 0.4 100955
22 january, sat
sat2200:00+25nne4868100 0.0 1010165
03:00+21ne48876 0.5 1010114
06:00+20ne49901 0.4 1012159
09:00+30nnw46460 0.4 1012668
12:00+37wnw54280 0.0 10102543
15:00+40wnw3420100 0.0 10064052
18:00+37sw3324100 0.1 10051366
21:00+28ene22480 0.2 100811